Wind_Speed
27 26 26 25 24 24 24 23 22 20 20 20 20 20 20 20 20 20 20 19 18 18 19 18 18 17 17 16 17 17 17 16 15 13 13 13 14 13 11 10 11 10 8 7 7 7 8 8 8 7 7 8 9 7 6 5 5 4 4 6 7 6 7 7 6 8 10 10 10 12 14 15 16 17 18 17 17 17 15 14 14 15 17 18 20
27 27 26 25 25 24 24 23 22 21 20 20 20 19 19 19 18 19 19 19 18 18 18 18 18 18 17 16 17 16 16 15 15 14 13 12 13 13 12 11 11 11 10 9 8 7 8 9 9 9 9 9 8 7 6 6 6 6 6 6 8 7 7 8 7 8 10 11 11 12 14 15 17 18 17 17 18 18 15 14 16 18 20 22 22
28 28 26 26 26 25 24 23 23 23 22 21 21 20 19 18 17 18 18 18 18 18 17 17 18 18 18 17 18 17 17 16 15 15 14 13 13 12 12 11 11 12 12 10 9 9 8 9 9 8 8 9 9 8 8 8 7 7 7 6 6 6 6 7 8 8 10 10 11 13 14 15 17 18 17 16 17 16 15 16 18 20 20 21 22
28 28 27 27 26 26 25 24 24 25 24 24 22 21 19 19 18 18 18 18 18 18 18 18 18 19 19 18 18 19 18 17 17 16 15 14 14 13 12 11 11 12 12 11 9 8 8 9 9 8 8 9 10 10 9 9 9 9 9 8 7 6 6 7 8 8 9 10 12 13 14 15 17 17 17 17 16 15 15 17 19 20 19 20 22
28 28 28 27 27 27 26 25 24 25 25 25 24 22 21 20 20 19 19 19 19 18 18 19 19 19 20 19 19 18 18 18 18 17 16 15 14 13 12 12 12 12 12 11 9 8 9 10 10 9 10 11 12 12 12 12 12 11 12 11 10 10 10 10 9 9 9 11 12 13 14 15 17 17 17 17 17 16 17 17 18 18 20 21 23
29 29 28 27 27 27 27 26 25 24 25 25 24 23 22 21 21 20 20 20 19 19 19 19 19 20 20 20 19 18 17 17 17 17 16 16 16 15 14 13 13 12 12 12 11 11 11 11 11 11 12 13 14 15 15 15 15 15 15 14 13 12 12 11 10 9 10 10 11 13 15 16 16 16 17 17 17 17 18 20 19 18 21 23 24
30 30 29 29 28 28 28 27 26 24 25 25 24 23 21 21 21 21 20 21 21 20 20 20 20 20 20 19 19 18 17 17 16 16 17 17 17 17 15 15 14 14 14 13 13 12 12 12 13 13 14 15 16 16 16 16 16 15 15 16 15 15 14 13 11 9 9 9 10 12 14 14 15 16 16 15 15 15 16 19 21 22 22 23 24
31 30 30 29 29 29 29 28 27 25 25 26 25 25 23 22 22 21 21 22 23 22 22 21 21 21 20 20 19 19 19 19 18 18 17 18 18 18 17 16 15 15 14 14 14 13 13 13 13 14 15 15 15 14 13 13 13 13 13 15 16 16 16 14 12 10 9 10 11 12 12 13 15 15 15 15 15 15 13 15 20 22 22 22 23
30 30 30 30 31 30 30 29 28 26 26 26 26 26 25 24 23 23 22 23 23 23 23 23 23 23 22 21 21 20 21 21 20 19 18 17 18 18 18 17 17 16 14 14 14 14 14 15 14 14 13 11 11 11 11 11 12 12 12 12 13 16 16 15 13 12 11 10 11 11 11 13 14 14 15 15 14 13 13 14 18 20 22 23 22
30 30 30 31 31 30 29 30 30 29 27 27 26 25 25 24 24 23 24 24 24 24 24 24 24 24 24 23 22 23 22 22 21 20 18 18 18 18 19 18 18 17 16 15 15 14 14 15 14 13 11 9 9 9 10 10 9 9 9 9 9 11 14 15 14 12 11 10 10 10 10 12 13 13 13 13 12 12 14 15 17 20 22 22 21
30 31 31 31 31 30 29 29 29 29 28 27 26 25 24 24 23 23 24 24 25 25 25 25 25 24 25 24 24 24 23 22 22 22 21 20 20 20 20 19 19 18 18 17 16 14 12 12 12 11 10 9 8 7 8 8 8 7 7 7 7 8 11 13 13 12 11 11 10 9 9 11 11 10 10 11 12 12 14 15 17 19 19 17 16
26 29 32 31 30 30 31 31 30 29 29 28 27 25 25 24 24 24 25 25 25 26 26 26 26 25 26 25 24 24 23 22 23 23 22 21 21 21 22 21 21 20 19 19 18 16 13 12 11 11 10 9 8 7 7 8 8 8 7 7 7 8 9 10 12 12 12 11 10 9 8 9 9 9 9 11 12 12 13 15 15 15 15 13 14
23 25 29 31 32 32 30 29 30 29 28 27 26 25 26 26 26 27 27 26 26 27 28 28 27 26 26 26 25 24 24 23 24 24 24 22 21 22 23 23 22 21 20 19 18 18 16 15 14 13 12 10 8 8 8 8 8 7 7 7 7 8 9 9 10 11 11 11 10 8 7 7 9 10 10 11 12 13 13 13 13 12 12 13 14
15 11 12 14 19 26 29 28 27 26 24 24 23 22 22 22 23 25 26 25 25 27 28 29 28 27 27 26 26 26 25 24 25 25 24 23 22 22 23 23 23 23 22 21 20 18 18 18 17 14 13 11 10 10 10 10 9 8 8 7 7 7 8 8 7 7 7 7 7 5 5 7 10 11 11 10 11 11 10 11 11 10 10 11 11
14 11 9 8 9 13 21 25 26 24 22 21 20 19 18 18 19 20 21 22 24 25 26 28 28 28 27 27 27 27 26 25 25 24 24 24 23 23 23 23 23 22 22 21 20 18 18 18 17 16 14 13 12 13 13 12 12 11 9 8 7 7 6 6 5 5 5 5 6 7 8 9 10 10 9 9 8 7 6 6 7 7 9 9 8
18 19 18 19 18 17 19 23 26 26 24 22 21 19 18 18 18 18 18 19 20 22 23 25 26 26 27 27 27 27 27 26 25 24 24 24 24 23 23 22 21 20 20 19 19 19 19 18 17 16 15 14 13 13 13 13 12 11 10 8 7 7 7 6 6 6 6 7 8 9 8 7 6 6 5 4 3 3 3 5 6 7 9 9 9
20 21 18 18 21 22 23 24 26 27 26 26 24 20 18 17 17 17 16 16 15 15 15 18 21 24 25 26 26 26 25 24 23 22 21 21 21 21 19 18 17 18 18 18 19 19 18 17 16 16 15 14 14 13 12 12 11 11 10 9 8 8 8 8 7 6 6 7 7 6 4 2 1 1 1 1 2 3 5 6 7 8 8 7 8
19 19 17 15 15 17 19 20 22 24 26 25 22 17 12 11 12 13 13 14 14 12 9 9 12 16 19 19 19 19 19 19 19 18 17 17 17 17 16 15 16 17 18 18 17 16 15 14 14 14 14 14 13 12 11 11 10 10 10 10 9 9 8 8 6 4 4 3 2 1 3 4 5 5 6 6 6 7 8 9 8 8 8 8 8
13 14 14 14 13 14 16 17 18 20 22 20 16 11 9 9 10 10 11 12 14 14 13 12 12 10 10 11 11 12 12 13 14 14 15 15 15 16 16 16 17 18 17 16 15 14 13 12 12 11 11 10 10 10 10 10 10 11 10 9 8 7 6 5 3 2 3 4 5 6 7 8 7 8 9 10 10 11 12 12 11 11 11 10 10
8 9 13 15 16 17 19 19 19 19 17 14 11 12 14 14 12 11 10 11 11 12 13 14 13 11 11 11 11 10 10 11 12 13 15 15 16 16 16 17 17 16 15 14 15 14 13 11 10 9 8 8 7 7 6 7 8 8 8 6 5 4 3 3 3 5 7 8 8 8 8 7 6 7 8 9 11 12 13 13 13 13 12 11 10
10 11 13 15 17 18 19 18 17 15 13 12 12 14 15 15 12 10 8 8 8 8 9 11 13 12 11 11 10 9 9 11 13 14 14 15 16 17 17 17 16 16 16 15 13 12 12 11 11 11 10 9 8 6 4 3 3 4 4 3 3 4 4 5 7 8 9 8 8 7 7 7 7 8 9 10 11 11 12 13 13 13 12 10 9
9 12 14 14 14 13 12 11 9 8 7 8 9 9 11 13 12 9 7 6 7 8 9 11 13 12 11 9 9 7 6 6 7 9 10 11 13 15 16 13 11 13 17 17 13 12 12 11 10 10 9 9 8 7 5 4 2 2 3 4 4 4 5 8 9 10 9 7 6 7 8 9 10 11 12 12 12 12 11 11 11 11 11 10 10
7 8 9 9 8 8 7 6 5 4 3 4 5 5 6 8 8 7 8 8 10 11 12 14 15 14 12 11 10 9 7 6 4 2 2 2 2 5 8 6 3 5 10 11 9 8 7 6 5 6 6 6 5 4 4 5 5 4 4 4 3 4 7 10 10 9 8 7 8 9 10 11 11 12 13 13 13 12 11 10 9 9 9 9 11
9 8 8 8 7 6 6 5 5 5 6 6 7 6 6 7 8 8 10 12 14 14 15 16 16 15 15 14 13 12 10 8 7 7 9 11 10 8 4 4 6 7 6 5 4 3 1 1 2 3 5 5 3 0 2 5 5 5 4 3 4 7 10 11 10 8 9 9 10 11 11 11 11 12 12 11 11 10 10 9 8 7 7 8 9
12 12 12 13 13 12 12 11 10 10 11 12 12 11 9 10 12 13 12 14 17 18 17 16 16 16 16 15 14 11 9 7 6 7 8 9 9 10 10 10 10 10 8 6 6 6 3 1 1 2 4 5 4 3 4 4 5 5 5 5 8 10 12 11 9 9 10 11 11 11 11 10 10 10 9 9 9 9 9 8 8 7 6 6 7
13 12 13 14 14 14 14 13 12 12 12 13 13 13 12 13 13 13 12 12 15 17 16 15 15 15 15 15 14 12 10 10 9 6 5 6 6 7 7 9 10 11 9 7 6 5 3 2 3 3 4 7 8 9 9 9 8 9 10 11 12 12 11 10 9 10 11 12 11 10 10 9 8 8 7 7 7 8 8 8 8 8 8 8 8
11 10 9 9 9 10 10 10 10 9 10 11 10 10 12 12 12 11 10 10 13 15 15 14 14 14 14 14 13 12 11 10 9 7 6 6 6 5 4 5 7 7 7 7 6 5 4 5 7 7 8 10 12 13 14 14 14 14 14 14 13 13 12 11 11 11 11 10 9 9 9 8 8 7 7 7 7 9 9 9 10 11 11 10 11
9 8 7 6 6 6 6 7 7 5 5 7 7 7 8 10 10 10 9 8 9 12 14 15 15 15 15 14 13 12 10 9 7 6 5 5 5 4 3 4 5 6 6 6 6 5 6 11 13 14 15 16 17 18 18 18 17 17 16 15 14 14 12 11 10 11 10 9 8 8 7 6 6 6 6 8 9 11 11 10 11 12 12 13 14
6 6 5 4 4 5 5 6 5 5 5 6 8 8 8 9 10 10 9 7 6 8 13 16 17 16 15 14 12 11 9 7 5 4 3 2 1 1 2 2 3 4 5 5 5 5 9 14 16 17 18 19 19 19 19 18 18 17 15 14 12 11 10 10 10 11 10 8 7 6 6 5 5 5 6 9 11 12 11 11 12 13 13 14 16
5 3 3 4 2 2 4 5 5 5 7 9 11 12 12 12 11 11 10 9 7 6 8 12 15 15 13 11 9 8 7 6 4 3 2 1 2 2 1 1 1 2 3 4 4 6 11 13 15 16 17 17 18 18 17 16 16 15 14 12 11 11 11 11 11 9 8 6 6 6 6 6 6 7 8 10 11 11 11 12 12 13 14 15 16
6 4 1 1 2 2 3 4 6 7 9 10 11 12 13 13 12 11 11 10 10 9 8 7 9 10 10 8 7 7 6 4 3 2 2 2 3 3 2 2 2 2 2 3 5 8 11 14 15 15 16 16 16 16 15 15 14 14 13 12 12 11 10 10 8 7 6 6 6 7 8 8 9 9 10 10 10 10 11 11 12 14 15 15 16
5 4 3 3 3 2 3 5 7 9 10 10 10 10 11 12 12 11 11 10 10 10 10 9 8 8 7 6 6 6 4 3 1 1 2 3 4 3 2 2 2 3 3 4 7 9 11 14 15 15 15 16 15 15 14 14 13 12 11 11 11 9 8 8 6 5 5 6 6 8 9 9 9 9 10 10 10 11 12 12 13 14 14 15 15
1 3 3 3 4 4 5 7 8 9 8 8 8 7 8 9 11 12 12 11 10 10 10 10 9 8 7 6 5 4 3 2 3 4 4 5 5 5 5 4 4 5 5 8 11 12 13 15 15 15 16 16 15 14 13 13 12 11 10 9 9 7 7 6 5 5 6 6 7 7 8 8 8 8 9 10 10 11 12 13 14 14 15 15 15
2 2 3 3 4 5 7 8 8 7 6 6 5 5 5 7 9 11 12 12 12 11 11 11 11 10 8 7 6 5 5 5 6 7 7 6 7 8 8 8 8 8 9 11 14 15 15 16 15 15 14 14 13 12 12 11 10 9 8 8 8 8 7 6 5 6 7 7 7 7 7 7 7 8 9 10 10 11 13 14 15 15 15 14 13
4 3 4 4 4 6 7 8 7 7 6 5 5 4 5 6 7 9 10 11 12 12 12 12 12 10 8 8 7 7 7 7 8 9 9 9 8 8 9 11 12 13 14 14 15 15 15 15 14 13 12 12 11 10 10 9 8 7 7 7 7 7 6 5 5 6 6 6 7 7 7 7 8 9 9 10 11 12 14 15 15 14 13 13 12
4 4 4 5 4 5 7 7 7 6 6 5 4 5 6 7 7 8 8 8 10 11 12 12 11 10 8 8 8 7 7 7 8 8 9 9 8 6 8 12 15 15 15 14 14 14 13 13 13 12 11 10 10 9 8 8 7 7 6 6 6 5 5 5 6 6 6 7 7 7 7 8 8 9 9 11 12 13 13 14 14 13 12 11 11
4 4 4 4 5 5 6 7 6 5 5 4 3 3 4 5 6 7 7 7 8 9 10 12 11 10 9 9 8 8 7 7 7 7 8 8 8 8 9 11 12 13 13 12 11 11 12 11 11 10 10 9 8 8 7 7 7 6 6 6 5 5 6 6 6 6 6 7 8 8 8 9 9 10 11 12 13 14 13 14 13 12 11 10 10
6 6 5 5 5 6 7 7 6 5 5 4 4 3 3 4 5 5 6 7 7 8 10 12 12 11 10 10 9 8 6 5 6 6 7 7 8 8 8 9 9 9 10 10 9 9 10 10 9 8 8 8 7 7 7 6 6 5 5 5 5 5 6 6 5 5 6 6 7 8 8 9 10 11 12 13 13 14 14 13 13 12 11 10 10
6 6 7 7 7 7 7 7 6 6 6 7 7 7 6 6 6 5 6 6 6 7 9 11 13 12 11 11 10 9 7 5 5 5 6 6 7 6 6 6 6 7 8 8 8 7 8 8 8 7 7 7 6 6 6 6 6 5 4 4 5 5 5 4 4 5 5 6 7 7 8 9 10 12 13 13 13 15 14 13 12 12 11 10 10
6 6 7 8 8 9 8 8 7 7 6 6 7 8 9 9 8 7 6 7 7 7 7 9 12 12 11 11 11 10 7 6 5 4 4 4 5 4 3 4 5 6 7 8 7 7 7 7 7 6 6 6 6 6 5 5 5 4 4 3 4 4 4 4 4 5 5 6 7 8 9 9 11 12 13 13 14 15 14 12 11 11 10 10 10
7 6 7 8 10 10 10 9 9 9 8 6 6 7 8 8 8 7 7 7 7 6 6 7 10 10 10 10 11 9 7 6 6 5 3 3 4 4 4 4 5 6 6 6 6 6 6 6 6 5 5 5 5 5 5 5 4 4 3 3 3 3 4 4 4 4 6 7 7 8 9 10 12 14 15 15 15 15 13 11 10 10 10 9 9
9 8 8 9 10 11 11 11 11 10 10 10 9 8 8 8 8 8 8 7 6 6 6 6 8 8 8 10 11 10 8 7 7 5 4 4 5 5 6 6 6 5 5 4 4 4 4 4 4 4 4 4 4 5 5 5 4 4 3 3 2 2 2 3 3 4 5 6 7 8 10 12 14 15 16 15 14 13 12 11 10 10 10 9 9
11 11 10 11 12 13 14 14 14 13 13 13 13 12 12 11 10 10 10 9 8 7 6 6 8 8 9 10 11 10 9 7 6 5 5 6 6 7 8 7 6 5 5 4 4 3 2 2 3 3 4 4 5 5 5 5 5 5 4 3 3 2 1 2 3 4 5 6 8 9 11 13 14 16 16 14 13 12 11 11 10 9 9 8 9
11 12 12 12 12 13 15 16 17 16 16 16 16 15 15 14 14 13 12 10 9 8 8 9 10 11 12 12 11 9 8 7 6 6 7 7 8 8 8 7 6 5 5 4 3 2 2 2 3 3 4 4 5 5 5 5 5 4 3 3 3 2 2 2 3 4 6 7 9 10 12 14 15 15 15 14 12 12 11 10 10 9 9 8 9
10 11 13 14 14 15 15 17 18 19 19 18 17 17 16 16 16 15 13 12 10 9 10 12 13 14 13 12 10 9 8 7 7 7 8 8 8 8 7 6 6 5 5 4 3 2 2 3 3 3 3 3 4 4 4 3 2 2 3 4 5 4 3 2 4 5 7 8 10 11 13 15 16 16 15 13 11 10 10 9 9 9 9 9 9
7 9 12 14 15 15 15 15 16 18 19 18 17 17 18 19 18 16 15 13 11 10 12 14 15 14 13 11 10 10 9 9 9 8 8 8 7 7 7 6 6 5 4 3 2 2 2 3 3 3 3 3 3 3 3 2 2 4 5 7 6 4 3 3 4 6 7 9 11 13 14 16 17 17 15 12 10 9 9 9 9 8 9 9 9
7 8 10 12 14 15 16 15 14 15 16 16 16 17 17 18 17 15 13 12 11 11 13 15 16 14 12 11 11 11 10 9 8 8 7 7 6 6 6 6 5 4 3 2 1 2 3 3 3 4 4 3 3 3 2 1 3 6 7 6 3 2 2 3 5 7 9 11 13 14 15 16 17 18 17 14 10 8 8 9 8 8 8 8 8
8 9 9 9 11 13 14 14 14 14 13 14 14 14 14 14 14 12 11 11 10 11 13 15 15 14 12 11 11 10 9 8 8 7 7 7 6 7 7 6 5 4 2 1 0 2 3 3 4 4 4 3 3 3 3 2 3 5 5 4 2 2 2 4 7 10 12 13 13 13 15 17 18 19 19 16 11 8 8 8 8 7 7 8 8
11 10 9 8 8 9 10 11 12 13 12 12 12 12 13 14 12 10 8 8 8 8 10 12 13 12 11 10 9 8 8 9 9 8 7 7 7 7 7 6 5 4 2 1 1 2 3 3 4 4 3 2 1 2 3 3 3 4 3 2 2 2 4 7 10 12 12 11 11 12 15 17 18 18 18 17 12 8 7 7 7 7 8 9 9
11 10 9 8 7 7 8 9 9 10 9 9 10 11 12 12 11 9 8 8 8 9 10 12 12 12 12 11 10 10 10 11 11 10 8 8 8 8 8 7 5 4 3 2 2 2 3 3 3 2 2 3 3 2 2 3 4 4 3 2 3 5 7 9 9 10 10 9 10 13 15 16 16 16 17 15 11 7 6 7 8 9 9 9 10
10 10 9 9 9 9 10 10 10 10 10 9 10 11 10 9 8 8 9 10 10 11 12 13 13 13 13 12 12 12 12 13 12 10 9 9 9 9 8 7 6 5 4 4 3 3 3 3 3 3 4 4 4 4 3 5 6 6 5 5 7 8 8 8 9 10 11 11 12 14 15 15 15 16 15 13 9 7 7 9 9 9 9 10 10
Wind_Direction
210 213 215 217 219 221 222 223 225 226 225 225 228 231 233 233 234 235 236 236 234 232 233 234 233 235 241 244 238 235 240 243 245 251 254 248 243 246 252 258 259 262 271 276 277 283 283 280 283 288 290 298 306 307 303 297 286 287 307 315 310 300 288 272 256 277 302 318 329 340 345 342 341 346 347 349 355 358 3 9 11 10 8 4 360
209 213 215 215 218 219 220 221 223 224 224 225 229 231 232 232 234 235 235 233 231 230 232 233 233 236 240 239 235 236 242 244 244 249 249 244 243 246 251 255 257 259 266 275 278 280 278 273 274 278 281 286 295 302 303 301 293 290 299 305 305 302 293 282 272 275 294 310 325 334 339 337 337 344 350 351 354 356 357 359 358 356 355 354 354
208 212 214 216 217 218 220 222 223 224 225 227 229 230 230 231 232 233 233 232 230 231 234 235 234 237 238 237 237 239 244 245 243 247 248 245 245 249 252 256 257 258 264 273 282 283 278 276 276 277 279 281 286 291 295 295 289 288 298 303 299 298 293 282 273 270 285 303 318 326 331 332 333 341 346 345 347 349 350 348 345 346 347 349 350
206 209 213 215 217 219 221 224 224 224 225 228 230 231 232 233 233 233 233 233 233 234 238 238 237 236 237 238 241 242 245 244 242 245 249 248 249 250 252 257 259 259 261 267 276 279 275 276 277 278 283 286 286 287 291 291 288 288 293 294 292 294 291 282 277 274 276 290 306 316 324 326 329 336 339 338 338 338 337 336 336 340 343 345 347
206 208 211 213 216 219 221 224 225 226 227 228 230 231 234 237 236 235 235 234 235 236 238 239 236 235 237 239 241 243 245 245 243 244 247 248 249 250 253 256 260 261 259 258 264 271 273 274 273 274 282 284 284 286 290 290 287 287 286 282 281 288 289 283 279 276 276 286 301 312 319 323 326 332 335 337 335 331 329 329 333 339 341 341 345
205 207 209 211 214 217 220 222 225 227 227 227 229 231 235 239 238 236 235 233 234 235 237 238 236 235 238 241 241 243 243 242 241 242 245 248 249 251 254 258 260 261 259 257 261 265 268 273 277 279 281 283 286 290 291 289 286 284 282 279 279 284 288 286 280 279 282 289 300 308 316 324 327 329 334 337 336 333 330 330 333 339 340 340 343
205 206 208 210 212 216 218 221 224 226 228 227 229 231 235 238 237 237 237 235 234 237 238 238 237 236 240 242 242 242 241 239 239 242 247 250 250 250 253 257 262 265 264 263 263 261 264 271 278 281 283 286 289 291 292 292 289 283 277 275 276 279 284 284 280 278 282 289 299 307 316 323 325 327 332 337 337 337 337 333 331 335 340 342 343
204 206 208 209 212 215 218 220 223 225 228 229 230 232 234 236 238 240 242 239 238 240 241 241 240 238 238 240 241 242 241 240 240 243 246 247 247 248 250 253 259 266 267 264 261 259 262 266 272 279 285 286 286 288 292 295 295 289 280 272 271 274 278 279 274 273 279 288 298 307 314 318 321 326 332 338 339 339 340 333 327 330 337 340 342
204 206 208 210 214 217 219 220 223 225 228 230 232 232 234 236 240 243 243 241 240 242 244 243 241 240 239 239 241 242 244 243 242 243 244 243 244 246 247 249 254 260 264 261 260 262 263 265 270 277 278 275 275 279 282 285 289 292 290 281 272 270 272 272 269 271 279 287 295 303 309 313 320 328 332 339 341 335 331 327 325 329 334 335 340
204 206 209 212 215 218 219 221 223 226 229 232 231 231 233 235 239 242 241 240 241 243 244 242 241 241 241 240 242 243 245 245 243 243 243 244 245 246 245 246 249 254 259 261 263 265 264 264 267 270 267 265 272 277 275 273 276 285 294 293 282 273 268 267 268 270 274 279 286 296 302 307 318 328 331 335 338 331 328 328 327 330 334 334 339
206 207 211 214 216 217 219 221 222 225 229 231 231 231 233 235 238 242 243 243 245 246 245 242 241 242 242 242 243 243 245 244 241 240 241 242 245 245 244 245 248 252 256 258 261 264 262 256 252 254 257 261 266 268 265 266 271 279 288 292 291 284 273 269 269 268 269 271 275 285 293 302 313 324 329 332 333 330 328 327 327 329 333 333 331
208 211 213 215 216 218 219 220 221 224 227 228 229 233 236 237 239 243 246 247 249 248 247 245 244 244 244 244 243 242 242 241 238 237 240 242 244 246 246 247 249 251 254 256 259 261 257 245 238 242 250 255 257 256 257 262 269 276 281 283 287 287 281 278 273 268 266 265 269 277 287 296 307 319 328 327 323 322 322 324 328 329 330 328 320
212 218 218 217 217 218 219 219 219 221 222 223 226 231 236 240 242 245 248 250 250 249 247 246 247 246 244 243 243 242 241 240 238 238 242 245 246 246 247 248 249 251 253 254 256 258 253 243 239 243 246 250 255 259 262 265 269 275 281 285 289 289 288 286 277 268 264 264 268 275 280 292 302 311 318 315 312 315 317 321 328 328 327 326 321
201 217 227 230 224 218 217 218 219 219 218 219 223 227 231 237 239 241 243 245 246 247 245 245 245 244 242 242 242 243 241 239 239 240 244 246 246 246 247 249 252 253 254 255 257 254 245 238 239 243 245 251 260 266 270 272 273 278 284 288 292 291 289 286 276 266 261 262 269 277 283 296 302 305 309 307 304 308 311 320 329 331 331 327 320
183 197 218 242 248 228 220 218 217 216 216 216 219 220 222 226 229 232 235 236 238 241 242 243 243 240 238 239 240 241 241 241 241 242 244 245 245 246 249 251 254 255 255 255 253 247 237 235 238 243 245 251 260 267 271 272 273 278 282 285 285 280 274 269 259 257 260 269 284 294 300 304 302 301 303 299 298 307 319 335 344 339 336 330 323
200 204 209 214 221 226 227 223 217 213 211 212 215 215 216 218 221 224 227 229 232 234 236 238 238 236 235 235 237 238 238 239 240 241 242 244 245 247 250 252 253 253 251 247 241 236 233 235 239 243 247 252 259 264 268 269 271 274 274 271 265 258 256 252 248 257 271 285 296 301 303 301 296 298 300 294 306 344 358 0 359 346 344 344 340
213 207 201 202 209 217 222 224 220 213 210 212 214 213 212 213 215 217 219 219 221 225 231 233 232 230 231 232 233 234 234 234 236 237 238 240 242 244 246 246 243 241 238 234 232 232 234 237 241 244 248 252 256 260 263 266 269 269 267 259 249 244 243 241 245 262 279 291 297 297 297 290 265 351 21 35 31 15 360 2 2 356 1 5 347
225 214 205 202 208 215 217 221 222 215 209 209 208 203 201 207 214 218 219 217 214 212 223 244 241 229 224 227 228 227 228 230 231 233 234 235 236 236 237 237 233 231 228 225 226 229 231 235 240 245 248 251 252 255 258 261 263 261 258 253 242 237 236 239 248 258 264 273 262 181 123 106 98 81 67 56 42 29 27 30 27 23 31 34 6
219 222 217 210 210 216 222 227 230 222 211 204 197 191 200 223 233 231 228 228 227 223 224 242 257 244 223 221 224 226 231 234 235 237 235 234 234 233 232 232 231 226 221 216 217 220 223 229 233 238 244 247 247 249 249 249 249 249 249 245 235 229 232 240 243 207 172 149 131 124 112 100 88 72 62 55 50 45 42 40 36 33 39 40 27
166 199 219 222 226 233 235 233 233 229 219 209 203 202 208 220 232 236 234 234 236 230 217 219 231 231 222 224 230 237 245 249 248 247 244 241 240 235 230 229 228 221 211 212 216 214 215 222 223 220 222 223 225 232 238 243 246 243 239 233 219 202 186 172 153 140 135 125 116 109 98 88 75 59 50 45 44 40 35 33 31 31 32 32 35
137 156 181 199 212 220 222 221 222 224 221 220 222 222 221 223 223 221 221 216 213 216 209 202 202 200 201 208 214 221 233 242 247 249 247 244 240 234 229 228 227 220 214 215 215 203 201 208 205 198 198 197 195 194 197 221 252 245 224 199 173 158 145 138 134 129 124 115 105 95 79 61 47 39 33 30 31 29 26 26 27 27 27 29 43
142 152 161 172 182 191 199 207 213 215 212 207 211 223 233 234 230 226 227 215 200 198 191 176 166 158 156 165 176 185 200 222 241 249 250 252 249 242 237 239 241 231 222 218 209 195 194 200 198 194 194 185 174 167 166 176 203 212 177 146 135 138 137 135 132 128 119 104 87 71 53 40 32 29 27 24 23 23 21 22 23 26 34 46 61
134 146 151 153 159 170 182 190 189 183 172 166 167 177 206 224 235 246 237 210 186 173 159 146 139 130 124 128 133 128 113 99 94 101 93 21 311 255 239 238 240 219 211 205 195 187 195 212 216 208 194 167 148 141 158 177 185 178 158 137 120 135 143 139 132 122 106 90 76 62 51 42 35 30 25 20 18 18 19 21 24 28 41 58 68
122 122 119 118 120 123 125 126 123 108 95 103 117 127 152 176 184 191 187 167 147 138 132 129 127 121 116 117 117 111 98 83 74 74 74 69 60 57 73 104 107 114 124 120 104 105 125 258 244 181 144 125 111 220 215 199 191 178 162 138 123 140 144 138 129 116 99 84 74 66 58 47 38 32 26 17 8 5 7 12 19 26 39 54 60
104 101 102 105 103 94 88 87 88 87 87 90 94 98 115 135 137 137 141 134 127 126 126 127 127 125 126 128 125 120 113 102 89 75 69 68 60 52 54 66 74 79 77 66 58 61 68 97 142 133 135 139 160 194 194 184 179 167 153 138 133 138 139 132 121 107 90 80 73 67 57 45 34 26 17 4 353 352 360 9 16 24 32 35 41
98 97 101 103 98 89 87 87 83 77 76 79 85 92 101 112 117 120 123 125 129 132 132 133 135 135 138 141 142 143 144 137 130 125 111 93 75 62 61 64 67 71 72 72 73 71 75 125 148 160 172 168 163 156 144 136 135 132 128 128 129 128 125 118 107 93 82 74 65 54 43 33 21 11 4 1 5 13 20 22 23 31 29 17 17
95 94 96 99 95 89 89 90 84 72 64 66 72 84 95 105 113 118 122 132 143 145 144 146 150 151 150 150 149 149 146 142 138 137 133 116 100 87 74 62 59 58 59 65 70 68 78 113 127 135 147 149 144 137 129 125 123 120 117 118 116 110 104 98 91 82 71 60 47 38 31 20 12 14 23 31 37 40 40 35 36 39 33 19 16
83 84 84 92 105 108 107 107 105 95 75 69 74 84 99 110 113 113 117 135 156 165 165 167 171 172 166 159 153 147 145 145 141 134 125 115 104 90 57 34 29 26 29 41 51 68 109 125 126 129 133 131 127 122 117 114 111 108 107 105 101 97 92 85 76 65 54 44 37 32 25 17 21 36 47 49 48 46 41 38 39 38 31 26 28
77 77 59 56 94 126 131 131 133 134 126 119 117 116 117 119 117 114 117 127 148 174 181 184 188 187 177 164 154 149 147 147 141 131 124 111 85 17 345 356 14 19 20 30 48 98 131 129 123 124 126 121 116 113 109 106 103 99 96 94 90 85 75 63 55 51 46 40 34 27 20 20 34 54 60 57 54 48 39 34 34 31 28 32 36
89 80 35 29 61 136 146 138 139 145 144 135 126 119 115 115 115 114 114 113 115 136 170 186 195 193 181 166 153 147 146 146 144 148 174 216 244 257 283 333 6 18 20 33 74 121 134 126 120 122 123 118 114 111 108 105 102 97 91 84 75 68 61 56 56 55 49 38 32 30 33 42 56 66 68 62 56 48 39 34 32 30 28 30 30
90 90 88 90 103 142 167 158 151 149 147 142 134 127 120 117 116 116 113 111 109 108 119 147 175 185 183 174 162 154 154 157 166 204 252 273 282 288 312 333 337 356 28 73 109 123 127 124 122 125 125 121 117 113 109 105 101 96 91 83 75 69 65 62 61 57 46 42 47 53 58 66 70 71 68 61 53 43 34 27 25 26 27 27 25
85 95 130 157 158 162 170 166 158 153 150 147 145 140 132 125 120 118 117 117 119 119 120 126 140 157 167 169 167 166 167 172 175 336 340 340 334 333 346 354 352 15 55 96 110 115 122 125 124 123 122 120 117 113 108 104 101 99 95 91 88 82 74 70 65 56 53 59 67 70 71 71 69 64 57 49 40 34 29 24 22 21 19 19 19
78 107 132 157 177 183 182 176 169 165 164 162 158 155 149 141 132 125 122 122 124 127 132 135 139 144 147 151 160 163 154 131 85 55 37 25 29 51 69 66 54 59 85 103 105 106 114 117 114 111 111 111 111 111 109 106 106 107 105 104 104 99 94 93 87 80 81 83 81 80 78 71 62 54 48 42 35 32 29 25 21 17 14 13 13
275 218 182 179 185 188 187 185 183 186 188 185 180 176 167 156 145 137 134 132 132 134 137 138 140 140 136 133 133 128 116 97 77 64 56 54 63 74 79 77 78 88 105 112 108 107 109 110 108 108 110 112 113 116 116 113 113 113 112 113 114 114 115 115 104 95 97 95 90 86 78 65 55 49 43 39 35 30 27 23 19 16 15 12 10
258 233 225 221 204 194 198 205 210 212 208 206 215 220 203 183 169 159 152 149 148 148 147 145 144 140 135 132 130 122 111 96 82 72 65 69 80 88 88 88 91 97 106 110 110 110 112 114 115 117 118 119 119 121 121 121 119 118 117 117 117 117 115 109 101 102 103 95 87 82 74 62 55 48 41 37 32 26 22 19 16 13 12 10 5
237 228 239 243 223 202 201 207 211 210 205 208 227 235 225 214 205 193 183 172 165 163 161 159 157 152 148 146 142 135 126 112 96 80 69 71 81 89 89 89 92 96 100 104 108 111 114 116 119 121 121 120 120 119 119 120 119 119 119 118 116 113 106 99 98 100 96 89 84 79 69 61 52 41 33 28 25 23 17 12 8 6 5 3 359
239 237 243 241 226 207 195 189 187 186 184 185 194 209 216 217 216 214 211 205 196 189 182 177 173 170 167 163 159 151 140 123 106 89 75 73 75 78 84 90 94 97 101 104 108 112 113 115 118 119 117 116 114 112 110 109 109 111 114 114 113 110 104 100 96 91 86 84 79 69 60 53 43 32 24 19 16 14 9 5 1 359 358 357 354
245 247 246 234 219 209 200 194 192 196 204 213 216 210 204 201 201 205 211 213 213 211 204 198 195 191 184 178 175 169 158 135 116 101 87 82 81 82 86 92 95 99 105 110 113 115 116 117 117 116 114 112 108 104 101 99 99 102 108 113 115 112 108 102 95 87 79 74 68 57 47 40 32 23 18 14 9 5 0 355 352 351 350 352 352
243 244 245 239 229 223 221 222 227 234 240 242 238 232 223 212 203 201 202 206 214 219 215 212 212 208 200 193 188 182 172 159 138 115 99 96 96 94 94 98 103 111 118 122 122 121 120 119 116 112 109 105 99 94 91 89 91 94 98 106 112 111 107 101 90 80 69 59 51 41 31 26 23 17 11 6 1 356 351 345 344 345 345 344 345
248 248 252 248 238 233 236 244 254 260 258 248 238 231 225 219 216 216 214 212 215 222 225 224 223 219 211 204 199 193 186 179 168 146 123 117 116 118 123 128 128 129 129 128 126 124 121 118 114 109 103 97 91 86 81 77 81 88 93 95 98 98 97 92 80 68 56 44 35 29 22 17 12 7 4 359 351 346 343 339 338 340 340 338 340
253 259 262 253 239 234 237 247 259 268 269 261 243 228 223 221 221 222 223 219 216 217 221 225 228 228 221 209 202 199 195 185 175 168 155 143 142 150 156 150 142 137 132 127 124 121 115 110 104 97 91 85 77 70 66 65 68 72 72 73 81 90 94 89 71 53 41 32 25 21 17 10 3 359 356 350 342 337 335 334 335 337 339 340 342
254 256 259 251 240 236 240 247 256 263 265 262 252 241 240 243 237 226 223 223 222 222 221 219 221 222 213 197 191 190 188 181 176 174 168 156 153 154 151 146 142 138 134 128 121 111 99 91 84 75 64 56 48 39 35 32 30 28 28 33 42 62 78 74 57 43 33 26 22 17 10 4 359 355 350 344 338 334 333 334 336 339 341 344 346
249 248 250 249 245 245 249 255 259 261 261 261 258 253 250 250 243 234 229 226 223 225 226 217 208 200 188 180 180 184 185 181 177 175 170 161 154 148 144 142 143 141 138 133 122 104 78 60 51 36 23 19 14 9 7 6 2 358 356 357 5 18 36 42 41 37 32 26 20 12 5 359 354 349 344 341 337 334 333 335 339 341 343 346 348
244 242 243 245 249 253 255 257 259 259 258 257 255 252 249 246 241 237 235 231 225 224 222 211 199 189 180 178 182 189 191 186 180 178 173 164 156 150 147 148 152 152 148 140 125 103 62 33 25 13 3 2 360 358 1 2 357 355 360 10 18 18 12 22 30 30 24 17 10 3 359 356 351 346 343 340 336 333 332 336 340 341 343 347 346
249 249 251 254 259 264 264 262 261 259 256 252 246 240 237 236 235 235 235 232 227 220 212 204 197 191 188 190 193 196 193 187 184 181 176 167 161 157 155 158 160 159 154 143 124 90 39 19 11 1 357 356 353 354 358 358 7 30 32 18 5 351 341 2 18 12 4 1 1 0 359 355 351 348 344 337 331 330 331 334 337 339 341 339 334
260 261 262 260 261 262 264 264 263 260 257 253 247 239 234 233 235 236 235 231 224 215 207 201 198 197 197 197 195 192 188 185 184 181 176 170 166 163 164 166 164 159 148 134 114 66 24 12 3 357 356 356 358 4 8 28 59 38 9 352 344 337 333 349 360 357 357 0 2 360 355 352 351 350 346 336 327 328 331 331 331 334 333 325 319
273 270 268 265 263 261 261 263 264 264 260 255 251 247 242 235 231 228 226 223 218 212 206 202 198 198 200 198 195 191 189 189 189 186 181 178 177 176 177 178 175 167 156 130 74 17 6 4 360 357 356 359 10 22 26 31 16 359 344 331 323 325 338 357 5 3 3 1 357 352 350 350 352 354 351 342 330 325 329 329 327 326 322 314 311
284 281 278 274 271 267 265 262 260 261 259 253 248 244 237 229 221 214 210 208 206 204 203 201 198 196 194 192 190 190 193 196 199 197 192 189 189 191 193 193 189 184 179 165 357 343 346 346 342 341 340 339 352 4 356 332 332 334 325 309 297 314 347 9 7 358 351 347 343 344 349 352 354 354 353 347 335 323 325 329 325 320 317 313 312
290 289 287 283 278 274 270 261 254 252 253 248 238 227 217 212 209 199 187 186 189 192 194 194 190 188 186 186 189 199 209 210 207 204 201 199 199 198 197 195 190 189 193 216 270 297 314 320 322 324 321 301 307 346 350 339 332 329 315 285 276 322 347 352 348 341 335 332 337 346 350 351 350 352 353 349 338 321 320 326 321 315 314 312 312
292 290 288 285 278 266 255 245 239 237 233 224 213 202 194 192 193 187 181 186 192 193 195 197 199 199 201 204 209 214 214 208 205 205 207 207 205 201 198 196 196 200 213 231 252 265 278 288 292 289 270 252 258 278 304 317 319 315 300 284 307 325 332 334 333 333 333 337 344 348 347 346 346 347 348 346 337 320 317 323 319 312 311 312 312
295 288 280 272 265 255 249 246 246 245 239 226 212 202 198 202 209 211 211 214 216 214 214 215 214 210 209 210 213 212 206 201 201 205 207 207 204 200 198 200 204 211 222 233 240 243 247 251 256 257 254 256 262 269 289 307 305 298 294 301 305 309 317 324 328 330 332 336 340 340 340 341 343 342 340 337 331 317 310 312 310 309 314 319 318
Height
833 835 836 838 840 841 842 844 845 847 848 849 850 851 852 853 854 855 856 857 858 859 860 861 862 863 863 864 864 865 865 865 866 866 866 866 866 867 867 868 868 867 868 867 867 867 866 866 866 865 865 865 864 864 863 863 863 863 863 862 862 862 862 861 861 860 859 859 859 858 857 856 855 854 853 851 850 849 848 847 846 845 843 842 841
831 833 835 837 838 839 841 842 844 845 846 847 848 849 850 851 852 853 854 856 857 857 858 859 860 861 862 862 863 863 864 864 865 865 865 865 865 866 866 867 867 867 867 866 866 866 866 865 865 864 864 864 863 863 863 862 862 862 862 862 861 861 861 861 860 859 859 858 858 857 857 856 855 854 853 851 850 849 848 847 846 845 844 842 841
829 831 833 835 836 838 839 841 842 843 845 846 847 848 849 850 851 852 852 854 855 856 857 857 858 859 860 860 861 862 862 863 863 864 864 864 864 865 865 865 865 865 865 865 865 865 865 864 864 863 863 863 863 862 862 862 862 861 861 861 861 860 860 860 859 859 858 857 857 856 856 855 854 853 853 851 850 849 848 847 846 845 844 842 841
827 829 831 833 835 836 838 839 840 842 843 844 845 846 847 848 849 850 851 852 853 854 855 855 856 857 858 858 859 860 861 861 862 862 863 863 863 863 864 864 864 864 864 864 864 864 863 863 863 862 862 862 862 861 861 861 861 861 860 860 860 860 859 859 858 858 858 857 856 855 855 854 854 853 852 851 850 848 847 846 845 844 843 842 841
826 827 829 831 833 834 836 837 838 839 841 842 843 845 846 847 848 848 849 850 851 852 853 853 854 855 856 856 857 858 859 860 860 861 861 862 862 862 862 863 863 862 862 862 862 862 862 862 862 862 861 861 861 861 860 860 860 860 859 859 859 859 858 858 858 857 857 856 855 855 854 854 853 852 851 850 848 847 846 845 845 843 842 841 840
823 825 827 828 830 832 833 835 836 837 839 840 842 843 844 845 846 847 847 848 849 850 851 851 852 853 854 854 855 856 857 858 859 859 860 860 861 861 861 861 861 861 861 861 861 861 861 861 861 861 861 860 860 860 859 859 859 858 858 858 858 858 857 857 857 856 856 856 855 854 854 853 852 851 851 850 848 846 845 843 843 842 841 839 838
820 822 824 826 827 829 831 832 834 835 837 838 840 841 842 843 844 845 846 847 848 848 849 850 850 851 852 853 854 855 855 856 857 857 858 858 859 859 860 860 860 860 860 860 860 860 860 860 860 859 859 859 859 858 858 857 857 857 856 856 856 856 856 856 856 855 855 855 854 854 853 852 851 850 850 849 848 846 844 842 841 840 840 838 837
818 820 822 823 825 826 828 830 831 833 835 836 837 839 840 841 842 843 845 845 846 847 847 848 849 850 850 851 852 853 853 854 855 855 856 856 857 857 858 859 859 859 859 859 859 859 858 858 858 858 858 858 857 857 856 856 855 855 854 854 854 854 854 854 854 854 854 854 853 852 851 851 850 849 849 848 847 846 845 843 841 839 839 838 837
817 818 820 821 822 824 826 828 830 831 833 834 835 837 838 839 840 841 843 844 845 845 846 847 847 848 848 849 850 851 851 852 853 853 854 854 855 856 856 857 857 858 858 858 858 857 857 857 857 857 856 856 856 855 855 855 854 853 853 853 853 853 853 853 853 853 853 852 852 851 850 850 849 849 848 847 846 845 844 843 841 840 838 837 836
815 817 818 819 820 823 825 827 828 830 831 832 833 834 836 837 838 839 840 841 842 843 844 845 845 846 847 847 848 849 849 850 851 852 853 853 854 854 855 855 856 856 856 856 856 856 856 856 855 855 855 855 855 854 854 854 853 852 852 851 851 851 851 851 851 851 851 850 850 850 849 849 849 848 847 846 846 845 844 843 841 839 837 835 834
814 815 816 817 819 821 823 825 827 828 830 831 832 833 834 835 836 837 838 839 840 841 842 843 844 844 845 846 847 847 848 848 849 850 851 851 852 852 853 854 854 854 854 854 855 855 855 854 854 854 854 853 853 853 852 852 852 851 851 851 850 850 850 850 850 849 849 849 848 848 848 847 847 847 846 845 845 844 843 842 841 839 837 835 833
813 814 814 816 818 820 822 823 825 826 827 829 830 831 833 834 834 836 836 837 838 839 840 841 842 843 843 844 845 845 846 846 847 848 849 849 850 851 851 852 852 852 853 853 853 853 853 853 853 853 852 852 852 851 851 851 851 850 850 850 850 849 849 849 848 848 848 847 847 847 846 846 846 845 845 844 843 843 842 841 840 839 838 836 834
812 814 814 816 817 818 821 822 823 824 825 827 828 829 831 832 833 834 834 835 836 837 838 839 840 841 842 842 843 843 844 844 845 846 846 847 848 848 849 850 850 850 850 851 851 851 852 852 851 851 851 850 850 850 850 850 849 849 849 849 849 848 848 848 847 847 847 846 846 846 845 845 845 844 844 843 842 841 840 840 839 838 837 836 835
810 813 816 818 818 818 820 821 822 823 824 825 827 827 828 829 830 831 832 833 834 834 835 836 837 838 839 840 841 841 842 842 843 843 844 845 846 846 847 847 848 848 848 848 849 849 849 849 849 849 849 849 849 849 848 848 848 848 848 848 847 847 847 847 846 846 845 845 845 845 844 844 844 843 842 842 840 840 839 838 838 837 837 836 834
806 810 815 819 822 823 822 821 821 822 823 824 825 826 826 827 828 829 830 831 832 832 833 834 835 836 837 838 838 839 840 840 841 841 842 842 843 844 845 845 845 845 845 846 846 846 847 847 847 847 847 847 847 847 847 847 847 847 846 846 846 846 845 845 845 845 845 844 844 844 844 843 843 842 841 840 840 839 838 837 837 836 835 834 833
806 807 810 814 819 822 822 821 820 820 821 822 823 824 824 825 826 827 828 829 830 831 832 833 833 834 835 835 836 837 838 838 839 839 840 840 841 842 842 843 843 843 843 843 844 844 844 845 845 845 845 845 845 845 845 846 846 845 845 845 845 844 844 844 844 844 844 844 843 843 843 842 841 841 840 840 839 838 838 837 836 835 834 833 832
810 807 809 812 815 817 819 819 819 818 818 819 820 821 822 824 825 826 827 828 830 831 833 833 833 833 834 834 834 835 836 837 837 838 838 838 839 839 840 840 840 841 841 841 842 842 843 843 843 843 844 843 843 843 844 844 844 844 844 844 843 843 843 843 843 843 843 843 842 842 842 841 841 840 840 839 839 838 837 836 835 834 833 832 832
813 810 810 812 814 816 817 818 819 818 817 817 818 820 821 823 825 826 827 828 829 830 832 835 835 834 833 834 834 835 835 836 836 837 837 837 837 837 838 838 838 839 839 840 840 841 841 842 842 842 842 842 842 842 842 842 842 842 842 842 842 842 842 842 842 842 842 842 842 842 841 841 841 840 840 840 839 838 838 837 836 835 833 833 832
812 810 810 811 813 815 816 817 820 820 817 815 816 818 821 824 825 825 826 827 828 829 831 834 837 836 835 835 835 835 836 836 836 836 836 836 836 836 836 836 836 837 837 838 839 839 840 840 840 841 841 841 841 841 841 841 841 841 841 840 840 840 841 841 841 841 841 841 841 841 841 841 841 841 841 840 840 839 839 838 837 836 834 833 832
810 809 810 811 812 814 815 817 819 819 816 814 815 817 819 821 823 823 824 826 827 828 829 831 834 835 835 835 835 836 836 836 836 836 836 836 836 835 834 834 834 835 837 838 837 837 838 838 838 839 839 839 840 840 840 840 840 840 840 840 839 840 840 840 841 841 840 840 840 840 840 840 840 840 840 840 840 840 839 839 838 837 836 834 833
811 812 813 813 814 816 816 817 817 815 813 812 813 815 816 818 820 821 822 824 826 827 829 830 832 833 834 834 834 835 835 836 836 836 835 835 835 833 832 831 831 832 835 837 836 836 836 836 835 836 836 837 837 838 838 840 841 841 840 839 839 839 840 840 840 841 841 841 841 841 840 840 840 839 839 839 839 839 839 839 838 837 836 835 834
811 813 814 815 815 816 816 816 815 814 812 812 812 813 814 816 819 820 822 823 825 827 829 830 831 832 832 833 834 834 835 836 836 835 835 834 834 832 831 830 830 831 833 834 834 833 833 833 833 834 834 835 835 836 837 838 840 841 840 839 839 839 839 840 840 841 841 841 841 841 841 841 840 840 840 840 839 839 839 838 838 837 836 836 835
811 812 813 814 814 813 813 813 813 813 813 814 814 814 815 817 819 821 823 824 824 826 829 830 831 831 832 833 833 834 836 836 836 835 835 835 835 834 832 830 830 831 833 833 833 833 832 832 833 833 834 835 835 836 837 837 839 840 839 838 838 839 839 840 840 840 841 841 841 841 841 841 841 841 841 840 840 840 839 838 838 837 836 836 835
813 813 813 814 814 813 813 813 812 813 813 814 815 816 817 818 819 820 823 824 824 826 829 830 831 831 832 833 834 834 835 837 837 837 836 835 836 837 835 832 830 831 833 834 834 833 833 833 833 833 834 836 837 838 838 838 838 839 838 837 838 838 839 839 840 840 840 841 841 842 842 842 842 842 841 841 841 840 840 839 838 837 836 836 835
816 815 816 816 815 815 814 813 814 814 814 815 816 817 818 819 819 821 822 824 825 827 830 831 831 831 832 833 834 835 835 837 839 840 839 838 838 839 839 836 833 833 834 835 834 834 834 834 833 833 834 836 837 838 838 838 838 837 837 837 837 838 839 839 839 839 840 840 841 842 842 842 842 842 842 841 841 840 839 839 838 838 837 836 835
819 818 818 818 817 817 816 815 815 816 816 816 817 818 819 820 821 823 824 825 827 829 831 832 833 833 833 834 835 836 836 837 839 842 842 840 839 840 841 839 836 836 836 835 835 834 834 834 833 834 835 836 836 837 837 837 837 836 837 837 837 838 839 839 839 839 840 841 842 842 843 843 843 842 842 841 840 839 839 838 837 837 836 836 835
820 820 820 820 819 819 818 818 818 817 818 818 819 820 820 822 824 825 826 828 830 831 832 833 834 834 835 836 837 837 837 838 840 842 842 840 839 840 841 840 838 837 837 836 835 835 834 834 834 834 835 835 835 835 836 836 837 837 837 838 838 839 839 839 840 840 841 842 843 843 843 843 843 842 841 841 840 839 838 837 837 836 835 835 834
822 822 821 821 821 821 821 821 821 821 821 821 822 823 823 824 826 827 828 829 831 832 833 833 834 835 835 836 837 838 839 840 841 841 841 841 840 841 840 840 838 837 836 835 835 835 835 835 835 835 836 835 836 836 836 837 837 838 839 839 840 840 840 841 841 841 842 843 843 843 843 843 842 842 841 840 840 839 838 837 837 836 835 834 833
824 824 823 823 823 823 824 824 824 825 825 825 826 826 827 827 828 828 829 830 831 832 833 833 834 835 836 837 838 839 840 841 841 841 841 841 840 840 840 839 838 836 835 835 835 835 836 836 836 837 837 837 837 837 837 838 838 839 840 841 841 842 842 842 842 842 842 843 843 843 842 842 842 841 841 840 840 839 839 838 837 836 835 834 833
826 826 826 826 826 825 826 826 827 827 828 828 829 829 829 830 830 831 831 832 832 833 834 835 835 837 838 839 840 840 841 842 841 841 841 840 840 840 839 838 837 836 835 835 835 836 836 836 837 838 838 838 838 838 839 839 840 841 842 843 843 843 843 843 843 843 843 843 843 843 843 842 842 841 841 840 840 839 839 838 837 836 835 834 834
828 828 827 828 828 827 828 828 829 830 830 831 831 831 832 832 833 833 833 833 833 834 835 836 837 838 839 840 840 841 842 842 842 842 841 840 840 839 838 838 837 836 836 836 836 836 836 836 837 838 839 839 839 840 840 841 841 842 843 844 844 844 844 844 844 844 844 844 843 843 843 843 843 842 841 841 840 839 839 838 837 836 836 835 834
829 829 829 829 829 829 830 830 830 831 832 833 833 833 833 834 834 834 834 834 835 836 836 837 838 839 840 841 841 842 842 842 842 842 841 840 839 838 837 837 837 836 836 836 837 837 837 837 838 839 839 840 840 841 841 842 842 843 844 844 844 844 844 844 844 844 844 844 844 844 844 844 844 843 842 842 841 840 839 838 838 837 836 836 835
830 830 830 831 831 831 831 832 832 833 833 834 834 834 834 835 835 835 835 836 836 837 838 838 839 840 841 842 842 843 843 843 842 842 841 840 839 837 837 837 837 837 837 837 838 838 838 839 840 840 841 841 842 842 843 843 844 844 844 844 844 844 844 844 844 844 844 844 844 844 844 844 844 844 843 843 842 841 840 839 839 838 837 836 836
831 831 832 832 832 833 833 833 834 834 834 835 835 835 836 836 836 836 836 837 837 838 839 840 840 841 842 843 843 844 844 844 843 842 841 840 839 838 838 838 838 837 837 838 839 839 840 840 841 842 842 843 843 844 844 845 845 845 844 844 844 844 845 845 844 844 844 844 844 844 844 844 844 843 843 843 842 842 841 840 840 839 838 837 837
832 832 832 833 833 834 834 834 835 835 835 836 836 836 837 837 837 837 838 838 839 840 840 841 842 842 843 844 844 844 844 844 844 843 842 842 841 840 840 840 839 839 839 839 840 841 841 842 842 843 843 844 844 845 845 845 846 846 845 845 845 845 845 845 844 844 844 844 843 843 844 844 843 843 843 843 842 842 842 841 840 840 839 838 837
833 833 833 833 834 834 835 835 835 836 836 836 836 836 837 837 838 838 839 839 840 840 841 842 842 843 843 844 844 844 845 845 844 844 843 843 843 842 842 841 841 841 841 841 842 842 843 843 843 844 844 845 845 846 846 846 846 846 846 846 846 846 846 845 845 845 844 844 844 844 844 844 844 843 843 843 842 842 842 841 840 839 839 838 837
834 834 834 834 834 835 835 835 836 836 836 836 836 836 836 837 837 838 839 839 840 840 841 842 842 843 843 844 844 845 845 845 845 844 844 844 844 844 844 843 843 843 843 844 844 844 844 845 845 845 845 846 846 846 846 846 847 847 847 847 847 846 846 846 846 846 845 845 845 845 844 844 844 844 843 843 842 842 842 841 840 839 838 837 836
834 834 834 835 835 835 835 836 836 836 837 837 837 837 837 837 837 838 838 839 839 840 841 841 842 843 843 844 844 845 845 845 845 845 845 845 845 845 845 845 845 845 845 845 846 846 846 846 846 846 846 847 847 847 847 847 848 848 848 848 847 847 847 847 847 846 846 846 845 845 845 844 844 844 843 843 843 842 841 841 839 838 837 836 835
834 834 834 835 835 835 836 836 836 837 837 837 837 837 837 837 837 838 838 839 839 840 840 841 842 842 843 844 844 844 845 845 845 845 845 845 846 846 846 846 845 845 846 846 846 847 847 847 848 848 847 848 848 848 848 848 848 848 848 848 848 848 848 848 847 847 847 846 846 845 845 845 844 844 843 843 842 841 841 840 839 838 836 835 834
833 834 834 835 835 836 836 836 836 837 837 837 837 837 837 837 838 838 838 839 839 840 840 841 841 842 843 844 844 844 845 845 845 845 845 846 846 846 846 846 846 846 846 847 847 847 848 848 848 849 848 848 848 849 849 849 849 849 849 849 848 848 848 848 848 847 847 847 846 846 845 845 844 844 843 842 841 841 839 839 838 836 835 834 833
833 834 834 834 835 836 836 836 837 836 837 837 837 837 837 837 837 838 838 838 839 839 840 840 841 841 842 843 844 844 845 845 845 845 846 846 846 846 846 847 847 847 847 847 848 848 848 849 849 849 849 849 849 849 849 849 849 849 848 848 848 848 848 848 847 847 847 847 846 846 845 845 844 843 842 842 841 839 838 837 836 835 834 833 832
833 833 834 834 835 836 836 836 836 836 837 837 836 837 837 837 837 837 838 838 838 839 839 839 839 840 841 841 842 843 844 844 845 845 845 846 846 847 847 847 848 848 848 848 848 849 849 849 849 849 849 849 849 849 849 849 848 848 848 848 848 848 847 847 847 847 847 846 846 846 845 844 843 843 842 841 839 838 837 836 835 834 833 832 831
832 833 833 834 834 834 835 835 836 836 836 836 836 836 836 836 836 837 837 837 837 838 838 838 839 839 840 840 841 842 842 843 844 844 845 845 846 846 847 848 848 848 849 849 849 849 849 849 849 850 849 849 849 849 848 848 848 848 848 848 848 848 847 847 847 847 846 846 846 845 844 844 843 842 841 839 838 837 835 834 833 832 832 831 830
831 832 832 833 833 833 834 834 834 835 835 835 835 836 836 836 836 836 836 836 836 837 837 838 838 838 839 840 841 841 842 842 843 844 844 845 845 846 847 847 848 848 849 849 849 849 849 849 849 849 849 849 849 848 848 848 847 847 848 848 848 848 847 847 847 847 846 846 845 845 844 843 842 841 839 838 837 835 834 833 832 831 831 830 829
830 831 831 831 832 832 832 832 833 833 833 834 834 834 835 835 835 835 835 835 835 836 836 837 837 838 839 839 840 841 841 842 843 843 844 844 845 845 846 847 847 848 848 848 849 849 849 849 849 849 848 848 848 847 847 847 847 847 847 847 847 847 847 847 847 846 846 845 845 844 843 842 841 840 838 837 836 835 833 832 832 831 830 829 829
829 829 830 830 830 830 830 831 831 831 831 832 833 833 833 833 833 833 834 834 834 835 835 836 836 838 838 839 840 841 841 842 843 843 844 844 845 845 846 846 847 847 848 848 848 848 848 848 848 848 848 847 847 847 847 846 846 846 846 846 846 846 846 846 846 846 845 845 844 843 842 842 840 839 838 836 835 834 832 832 831 830 829 829 828
828 828 828 828 828 828 829 829 829 829 830 830 831 831 832 832 832 832 833 833 833 834 834 835 836 837 838 839 840 841 842 843 843 844 844 844 844 845 845 846 846 847 847 847 847 847 847 847 847 847 846 846 846 846 846 846 845 845 845 845 845 845 845 845 846 845 845 844 843 842 842 841 839 838 836 835 834 833 832 831 830 829 829 828 828
826 826 826 826 826 827 827 827 828 828 828 828 828 829 830 831 831 832 832 832 832 833 833 835 836 837 838 839 840 841 843 843 843 843 844 844 844 845 845 845 846 846 846 846 847 847 847 847 846 846 845 845 845 845 845 845 845 845 844 844 845 845 845 845 845 844 844 843 842 842 841 840 838 837 835 833 832 831 831 830 829 829 829 828 827
825 824 824 824 825 825 825 825 826 826 826 826 827 827 828 829 830 831 831 832 832 833 834 835 836 837 838 840 841 842 843 843 843 843 843 843 843 844 844 845 845 845 845 846 846 846 846 846 846 845 845 845 844 844 844 844 844 844 844 844 844 844 844 844 844 844 843 842 842 841 840 838 837 836 834 833 832 831 830 830 829 829 828 827 827
823 823 823 823 823 824 824 825 825 825 826 826 826 826 827 828 829 829 830 831 832 832 833 834 835 836 837 838 840 841 841 842 842 842 842 843 843 843 843 844 844 845 845 845 845 846 846 846 845 845 844 844 844 844 844 843 844 844 843 843 844 844 843 843 843 842 842 841 840 840 839 837 836 835 834 832 831 831 830 830 829 829 828 827 826
822 822 822 822 822 823 823 824 824 825 825 826 826 827 827 828 828 829 830 830 831 831 832 833 833 834 835 836 838 839 839 840 841 841 841 842 842 842 842 843 843 844 844 845 845 845 845 845 844 844 844 844 844 843 843 843 843 843 843 843 843 842 842 842 842 841 841 840 839 839 838 837 835 834 833 832 831 831 830 830 829 828 828 827 826